Terug naar catalogus

SL-16 DEB

ActiefLEO
NORAD 22494·DEBRIS·🇷🇺 Russia

Gelanceerd Dec 25, 1992 vanaf Baikonur Cosmodrome

Loading…

Volgende Passages (komende 24 uur)

TLE

VersSource: Space-Track

Epoch: Sep 14, 2026, 10:42 UTC

1 22494U 92093GD  26257.44651927  .00002855  00000-0  13682-2 0  9996
2 22494  70.8047 255.5327 0154358 295.4593 229.0204 14.13809194701828

Volg SL-16 DEB in realtime met AllMySat

Download on the App Store